SPACEMOBILE-005

Last updated on Mon Sep 21 2026 00:02:09 GMT+0000 (Coordinated Universal Time)

1 61046U 24163B 26263.30386954 .00003192 00000+0 15941-3 0 9997 2 61046 52.9742 232.1109 0009471 43.2125 316.9610 15.20370104112232
UTC large
Height (km)
Speed (km/s)
/
Latitude / Longitude
Inclination (degrees)
Orbital Period (minutes)
Azimuth
Elevation
Range (km)
Doppler Factor

Next 0 passes for location: London (51.5072 / 0.1276)

No passes found over London.
SPACEMOBILE-005